sat.trackr.live / text

‹ back to catalog

STARLINK-34156

NORAD 64108 · 2025-110N

PAYLOAD ACTIVE UNKNOWN

§ Identity

Operator
Country
US
Launch date
2025-05-23
Launch site
AFWTR
Launch vehicle
Mass (kg)
RCS (m²)

Purposes: comms

External: N2YO · Heavens-Above · Gunter

§ Orbital elements

Epoch: 2026-09-20T07:52:15.378528Z

Period
94.01 min
Inclination
53.1554°
Eccentricity
0.0001453
Mean motion
15.31723705 rev/d
Perigee alt
469.7 km
Apogee alt
471.7 km
Semi-major
6,848.8 km
B*
5.9098e-4
RAAN
201.1893°
Arg perigee
100.6054°
Mean anomaly
259.5111°
Rev number
7,570

§ Raw data

STARLINK-341561 64108U 25110N   26263.32795577  .00018031  00000+0  59098-3 0  99982 64108  53.1554 201.1893 0001453 100.6054 259.5111 15.31723705 75704

JSON: /api/v1/satellites/64108 · /tle

For live sub-satellite position, see the globe view (requires WebGL).

§ Visibility from observer

Set your observer location to see the next 7 days of passes ≥ 10°. The values pass through the URL so the page stays shareable.

No JS? Fill the form by hand. The geolocation button needs JavaScript.